Volver al catálogo

TELKOM 3S

ActivoComunicacionesGEO
NORAD 41944·PAYLOAD·🇮🇩 Indonesia

Lanzado Feb 14, 2017 desde Guiana Space Centre

Loading…

TLE

ActualizadoSource: Space-Track

Época: Sep 14, 2026, 14:21 UTC

1 41944U 17007A   26257.59850111 -.00000370  00000-0  00000-0 0  9990
2 41944   0.0177 185.5594 0002269 347.2749 154.2113  1.00271708 35035

Sigue TELKOM 3S en tiempo real con AllMySat

Download on the App Store